Time,TemperatureF,DewpointF,PressureIn,WindDirection,WindDirectionDegrees,WindSpeedMPH,WindSpeedGustMPH,Humidity,HourlyPrecipIn,Conditions,Clouds,dailyrainin,SoftwareType,DateUTC
2013-08-06 00:00:00,58.2,46.1,30.15,South,178,1.0,1.0,64,0.00,,,0.00,Wunderground v.1.15,2013-08-06 04:00:00,
2013-08-06 00:05:00,58.1,45.6,30.15,SSW,212,1.0,3.0,63,0.00,,,0.00,Wunderground v.1.15,2013-08-06 04:05:00,
2013-08-06 00:10:00,58.1,45.6,30.16,South,178,1.0,1.0,63,0.00,,,0.00,Wunderground v.1.15,2013-08-06 04:10:00,
2013-08-06 00:15:00,58.2,45.7,30.16,SSW,208,1.0,3.0,63,0.00,,,0.00,Wunderground v.1.15,2013-08-06 04:15:00,
2013-08-06 00:20:00,58.2,46.1,30.16,SSE,150,1.0,1.0,64,0.00,,,0.00,Wunderground v.1.15,2013-08-06 04:20:00,
2013-08-06 00:25:00,58.2,46.1,30.17,South,183,1.0,1.0,64,0.00,,,0.00,Wunderground v.1.15,2013-08-06 04:25:00,
2013-08-06 00:30:00,58.3,46.2,30.16,South,169,1.0,1.0,64,0.00,,,0.00,Wunderground v.1.15,2013-08-06 04:30:00,
2013-08-06 00:35:00,58.3,46.2,30.17,SSW,195,1.0,2.0,64,0.00,,,0.00,Wunderground v.1.15,2013-08-06 04:35:00,
2013-08-06 00:45:00,58.5,46.4,30.16,SSW,202,2.0,2.0,64,0.00,,,0.00,Wunderground v.1.15,2013-08-06 04:45:00,
2013-08-06 00:50:00,58.4,46.7,30.16,South,190,1.0,2.0,65,0.00,,,0.00,Wunderground v.1.15,2013-08-06 04:50:00,
2013-08-06 00:55:00,58.5,46.4,30.16,SW,216,1.0,3.0,64,0.00,,,0.00,Wunderground v.1.15,2013-08-06 04:55:00,
2013-08-06 01:00:00,58.4,46.7,30.16,SSW,207,1.0,1.0,65,0.00,,,0.00,Wunderground v.1.15,2013-08-06 05:00:00,
2013-08-06 01:05:00,58.3,47.4,30.16,South,179,1.0,1.0,67,0.00,,,0.00,Wunderground v.1.15,2013-08-06 05:05:00,
2013-08-06 01:10:00,58.0,47.5,30.16,South,179,1.0,1.0,68,0.00,,,0.00,Wunderground v.1.15,2013-08-06 05:10:00,
2013-08-06 01:15:00,57.7,47.2,30.16,South,182,1.0,1.0,68,0.00,,,0.00,Wunderground v.1.15,2013-08-06 05:15:00,
2013-08-06 01:20:00,57.5,47.4,30.16,South,182,1.0,2.0,69,0.00,,,0.00,Wunderground v.1.15,2013-08-06 05:20:00,
2013-08-06 01:25:00,57.4,47.3,30.16,South,182,1.0,2.0,69,0.00,,,0.00,Wunderground v.1.15,2013-08-06 05:25:00,
2013-08-06 01:30:00,57.2,47.1,30.16,South,182,1.0,1.0,69,0.00,,,0.00,Wunderground v.1.15,2013-08-06 05:30:00,
2013-08-06 01:40:00,56.9,47.6,30.16,South,182,1.0,2.0,71,0.00,,,0.00,Wunderground v.1.15,2013-08-06 05:40:00,
2013-08-06 01:45:00,56.9,47.2,30.16,SSE,163,1.0,2.0,70,0.00,,,0.00,Wunderground v.1.15,2013-08-06 05:45:00,
2013-08-06 01:50:00,56.9,47.6,30.16,SSE,164,1.0,1.0,71,0.00,,,0.00,Wunderground v.1.15,2013-08-06 05:50:00,
2013-08-06 01:55:00,56.9,47.2,30.16,SSE,159,1.0,1.0,70,0.00,,,0.00,Wunderground v.1.15,2013-08-06 05:55:00,
2013-08-06 02:00:00,56.8,47.5,30.16,SSE,159,1.0,2.0,71,0.00,,,0.00,Wunderground v.1.15,2013-08-06 06:00:00,
2013-08-06 02:05:00,56.7,47.4,30.16,South,175,1.0,2.0,71,0.00,,,0.00,Wunderground v.1.15,2013-08-06 06:05:00,
2013-08-06 02:10:00,56.7,47.8,30.16,SSE,168,1.0,1.0,72,0.00,,,0.00,Wunderground v.1.15,2013-08-06 06:10:00,
2013-08-06 02:15:00,57.0,47.7,30.16,South,169,1.0,1.0,71,0.00,,,0.00,Wunderground v.1.15,2013-08-06 06:15:00,
2013-08-06 02:20:00,57.2,47.1,30.16,South,172,1.0,1.0,69,0.00,,,0.00,Wunderground v.1.15,2013-08-06 06:20:00,
2013-08-06 02:25:00,57.3,47.2,30.16,SSW,192,1.0,2.0,69,0.00,,,0.00,Wunderground v.1.15,2013-08-06 06:25:00,
2013-08-06 02:30:00,57.5,47.0,30.16,South,179,1.0,1.0,68,0.00,,,0.00,Wunderground v.1.15,2013-08-06 06:30:00,
2013-08-06 02:35:00,57.4,47.3,30.16,South,179,0.0,1.0,69,0.00,,,0.00,Wunderground v.1.15,2013-08-06 06:35:00,
2013-08-06 02:40:00,57.4,46.9,30.16,SSW,200,0.0,0.0,68,0.00,,,0.00,Wunderground v.1.15,2013-08-06 06:40:00,
2013-08-06 02:45:00,57.3,47.2,30.16,South,186,0.0,0.0,69,0.00,,,0.00,Wunderground v.1.15,2013-08-06 06:45:00,
2013-08-06 02:50:00,57.2,47.1,30.16,South,173,0.0,0.0,69,0.00,,,0.00,Wunderground v.1.15,2013-08-06 06:50:00,
2013-08-06 02:55:00,57.1,47.4,30.16,South,173,1.0,1.0,70,0.00,,,0.00,Wunderground v.1.15,2013-08-06 06:55:00,
2013-08-06 03:00:00,56.9,47.2,30.16,South,173,0.0,1.0,70,0.00,,,0.00,Wunderground v.1.15,2013-08-06 07:00:00,
2013-08-06 03:05:00,56.9,47.2,30.16,South,171,0.0,2.0,70,0.00,,,0.00,Wunderground v.1.15,2013-08-06 07:05:00,
2013-08-06 03:10:00,57.0,47.7,30.16,South,184,1.0,1.0,71,0.00,,,0.00,Wunderground v.1.15,2013-08-06 07:10:00,
2013-08-06 03:15:00,56.9,48.3,30.16,South,171,1.0,1.0,73,0.00,,,0.00,Wunderground v.1.15,2013-08-06 07:15:00,
2013-08-06 03:20:00,56.8,47.9,30.16,South,171,1.0,1.0,72,0.00,,,0.00,Wunderground v.1.15,2013-08-06 07:20:00,
2013-08-06 03:25:00,56.7,47.4,30.16,South,170,1.0,1.0,71,0.00,,,0.00,Wunderground v.1.15,2013-08-06 07:25:00,
2013-08-06 03:30:00,56.7,48.1,30.16,South,171,1.0,1.0,73,0.00,,,0.00,Wunderground v.1.15,2013-08-06 07:30:00,
2013-08-06 03:35:00,56.7,47.8,30.16,South,171,1.0,2.0,72,0.00,,,0.00,Wunderground v.1.15,2013-08-06 07:35:00,
2013-08-06 03:40:00,56.6,48.4,30.16,South,176,1.0,1.0,74,0.00,,,0.00,Wunderground v.1.15,2013-08-06 07:40:00,
2013-08-06 03:45:00,56.6,47.7,30.16,South,187,1.0,1.0,72,0.00,,,0.00,Wunderground v.1.15,2013-08-06 07:45:00,
2013-08-06 03:50:00,56.7,48.1,30.16,SSE,161,1.0,1.0,73,0.00,,,0.00,Wunderground v.1.15,2013-08-06 07:50:00,
2013-08-06 03:55:00,56.7,47.8,30.16,SSE,161,1.0,1.0,72,0.00,,,0.00,Wunderground v.1.15,2013-08-06 07:55:00,
2013-08-06 04:00:00,56.6,48.0,30.16,SSE,161,1.0,1.0,73,0.00,,,0.00,Wunderground v.1.15,2013-08-06 08:00:00,
2013-08-06 04:05:00,56.5,47.9,30.16,SSE,161,1.0,1.0,73,0.00,,,0.00,Wunderground v.1.15,2013-08-06 08:05:00,
2013-08-06 04:10:00,56.4,48.2,30.16,South,173,0.0,0.0,74,0.00,,,0.00,Wunderground v.1.15,2013-08-06 08:10:00,
2013-08-06 04:15:00,56.4,48.2,30.16,SSE,167,0.0,0.0,74,0.00,,,0.00,Wunderground v.1.15,2013-08-06 08:15:00,
2013-08-06 04:20:00,56.5,47.9,30.17,South,170,1.0,1.0,73,0.00,,,0.00,Wunderground v.1.15,2013-08-06 08:20:00,
2013-08-06 04:25:00,56.5,48.3,30.17,South,170,1.0,1.0,74,0.00,,,0.00,Wunderground v.1.15,2013-08-06 08:25:00,
2013-08-06 04:30:00,56.4,47.9,30.17,South,181,1.0,3.0,73,0.00,,,0.00,Wunderground v.1.15,2013-08-06 08:30:00,
2013-08-06 04:35:00,56.7,48.5,30.17,SSW,200,1.0,3.0,74,0.00,,,0.00,Wunderground v.1.15,2013-08-06 08:35:00,
2013-08-06 04:40:00,56.7,48.1,30.17,SSW,200,0.0,0.0,73,0.00,,,0.00,Wunderground v.1.15,2013-08-06 08:40:00,
2013-08-06 04:45:00,56.6,48.4,30.17,South,175,0.0,0.0,74,0.00,,,0.00,Wunderground v.1.15,2013-08-06 08:45:00,
2013-08-06 04:50:00,56.5,48.7,30.17,South,175,0.0,0.0,75,0.00,,,0.00,Wunderground v.1.15,2013-08-06 08:50:00,
2013-08-06 04:55:00,56.2,48.4,30.17,South,175,0.0,0.0,75,0.00,,,0.00,Wunderground v.1.15,2013-08-06 08:55:00,
2013-08-06 05:00:00,55.9,48.1,30.17,South,175,0.0,0.0,75,0.00,,,0.00,Wunderground v.1.15,2013-08-06 09:00:00,
2013-08-06 05:05:00,55.8,48.0,30.17,South,190,0.0,0.0,75,0.00,,,0.00,Wunderground v.1.15,2013-08-06 09:05:00,
2013-08-06 05:10:00,55.8,48.0,30.18,SSE,158,1.0,2.0,75,0.00,,,0.00,Wunderground v.1.15,2013-08-06 09:10:00,
2013-08-06 05:15:00,56.1,48.6,30.17,South,180,1.0,2.0,76,0.00,,,0.00,Wunderground v.1.15,2013-08-06 09:15:00,
2013-08-06 05:20:00,56.1,48.3,30.18,South,172,0.0,0.0,75,0.00,,,0.00,Wunderground v.1.15,2013-08-06 09:20:00,
2013-08-06 05:25:00,56.2,48.0,30.18,SSW,197,0.0,0.0,74,0.00,,,0.00,Wunderground v.1.15,2013-08-06 09:25:00,
2013-08-06 05:30:00,56.4,48.2,30.18,South,176,0.0,0.0,74,0.00,,,0.00,Wunderground v.1.15,2013-08-06 09:30:00,
2013-08-06 05:35:00,56.6,47.7,30.18,South,186,0.0,0.0,72,0.00,,,0.00,Wunderground v.1.15,2013-08-06 09:35:00,
2013-08-06 05:40:00,56.8,47.5,30.19,South,187,0.0,2.0,71,0.00,,,0.00,Wunderground v.1.15,2013-08-06 09:40:00,
2013-08-06 05:45:00,57.0,47.7,30.19,SW,228,0.0,2.0,71,0.00,,,0.00,Wunderground v.1.15,2013-08-06 09:45:00,
2013-08-06 05:50:00,57.3,47.6,30.19,SSW,206,1.0,1.0,70,0.00,,,0.00,Wunderground v.1.15,2013-08-06 09:50:00,
2013-08-06 05:55:00,57.4,47.7,30.19,SSW,206,0.0,1.0,70,0.00,,,0.00,Wunderground v.1.15,2013-08-06 09:55:00,
2013-08-06 06:00:00,57.4,48.4,30.19,SSW,206,0.0,0.0,72,0.00,,,0.00,Wunderground v.1.15,2013-08-06 10:00:00,
2013-08-06 06:10:00,57.4,48.8,30.19,SSW,198,0.0,0.0,73,0.00,,,0.00,Wunderground v.1.15,2013-08-06 10:10:00,
2013-08-06 06:15:00,57.7,49.1,30.19,SSW,211,0.0,0.0,73,0.00,,,0.00,Wunderground v.1.15,2013-08-06 10:15:00,
2013-08-06 06:20:00,58.3,49.3,30.19,SSW,211,0.0,0.0,72,0.00,,,0.00,Wunderground v.1.15,2013-08-06 10:20:00,
2013-08-06 06:25:00,58.7,49.7,30.19,SSW,211,0.0,1.0,72,0.00,,,0.00,Wunderground v.1.15,2013-08-06 10:25:00,
2013-08-06 06:30:00,59.0,50.4,30.19,SSW,211,0.0,0.0,73,0.00,,,0.00,Wunderground v.1.15,2013-08-06 10:30:00,
2013-08-06 06:35:00,59.3,50.3,30.19,SSW,211,0.0,0.0,72,0.00,,,0.00,Wunderground v.1.15,2013-08-06 10:35:00,
2013-08-06 06:40:00,59.5,50.1,30.19,SSW,211,0.0,0.0,71,0.00,,,0.00,Wunderground v.1.15,2013-08-06 10:40:00,
2013-08-06 06:45:00,59.8,50.4,30.20,SSW,211,0.0,0.0,71,0.00,,,0.00,Wunderground v.1.15,2013-08-06 10:45:00,
2013-08-06 06:50:00,60.0,50.6,30.20,SSW,211,0.0,0.0,71,0.00,,,0.00,Wunderground v.1.15,2013-08-06 10:50:00,
2013-08-06 06:55:00,60.2,50.0,30.20,SSW,211,0.0,0.0,69,0.00,,,0.00,Wunderground v.1.15,2013-08-06 10:55:00,
2013-08-06 07:00:00,60.2,50.4,30.20,SSW,213,0.0,0.0,70,0.00,,,0.00,Wunderground v.1.15,2013-08-06 11:00:00,
2013-08-06 07:05:00,60.0,50.2,30.20,SSW,213,0.0,0.0,70,0.00,,,0.00,Wunderground v.1.15,2013-08-06 11:05:00,
2013-08-06 07:10:00,59.8,50.0,30.21,SSW,213,0.0,0.0,70,0.00,,,0.00,Wunderground v.1.15,2013-08-06 11:10:00,
2013-08-06 07:15:00,59.5,50.1,30.21,SSW,213,0.0,0.0,71,0.00,,,0.00,Wunderground v.1.15,2013-08-06 11:15:00,
2013-08-06 07:20:00,59.4,49.6,30.21,SSW,213,0.0,0.0,70,0.00,,,0.00,Wunderground v.1.15,2013-08-06 11:20:00,
2013-08-06 07:25:00,59.7,50.3,30.21,SSW,213,0.0,0.0,71,0.00,,,0.00,Wunderground v.1.15,2013-08-06 11:25:00,
2013-08-06 07:30:00,60.4,50.6,30.21,SW,215,0.0,0.0,70,0.00,,,0.00,Wunderground v.1.15,2013-08-06 11:30:00,
2013-08-06 07:40:00,61.8,51.1,30.22,SSW,200,0.0,0.0,68,0.00,,,0.00,Wunderground v.1.15,2013-08-06 11:40:00,
2013-08-06 07:45:00,62.2,51.9,30.22,SSW,200,0.0,0.0,69,0.00,,,0.00,Wunderground v.1.15,2013-08-06 11:45:00,
2013-08-06 07:50:00,62.3,51.6,30.22,WNW,289,1.0,1.0,68,0.00,,,0.00,Wunderground v.1.15,2013-08-06 11:50:00,
2013-08-06 08:00:00,62.6,51.5,30.22,SSW,194,0.0,0.0,67,0.00,,,0.00,Wunderground v.1.15,2013-08-06 12:00:00,
2013-08-06 08:05:00,62.4,51.7,30.23,SSW,194,0.0,0.0,68,0.00,,,0.00,Wunderground v.1.15,2013-08-06 12:05:00,
2013-08-06 08:10:00,62.1,51.8,30.23,SSW,194,0.0,0.0,69,0.00,,,0.00,Wunderground v.1.15,2013-08-06 12:10:00,
2013-08-06 08:15:00,62.3,51.6,30.23,SSW,194,0.0,0.0,68,0.00,,,0.00,Wunderground v.1.15,2013-08-06 12:15:00,
2013-08-06 08:25:00,63.5,52.3,30.23,SSW,200,0.0,1.0,67,0.00,,,0.00,Wunderground v.1.15,2013-08-06 12:25:00,
2013-08-06 08:35:00,64.7,52.7,30.23,SW,215,0.0,1.0,65,0.00,,,0.00,Wunderground v.1.15,2013-08-06 12:35:00,
2013-08-06 08:40:00,65.1,53.5,30.23,WNW,303,0.0,0.0,66,0.00,,,0.00,Wunderground v.1.15,2013-08-06 12:40:00,
2013-08-06 08:45:00,65.3,52.8,30.23,WSW,238,0.0,0.0,64,0.00,,,0.00,Wunderground v.1.15,2013-08-06 12:45:00,
2013-08-06 08:50:00,65.6,52.7,30.23,WSW,243,0.0,0.0,63,0.00,,,0.00,Wunderground v.1.15,2013-08-06 12:50:00,
2013-08-06 08:55:00,66.1,53.1,30.23,SW,236,0.0,0.0,63,0.00,,,0.00,Wunderground v.1.15,2013-08-06 12:55:00,
2013-08-06 09:00:00,66.5,54.4,30.23,WNW,298,0.0,0.0,65,0.00,,,0.00,Wunderground v.1.15,2013-08-06 13:00:00,
2013-08-06 09:10:00,66.8,54.2,30.23,West,265,0.0,0.0,64,0.00,,,0.00,Wunderground v.1.15,2013-08-06 13:10:00,
2013-08-06 09:15:00,67.3,54.3,30.23,West,269,0.0,0.0,63,0.00,,,0.00,Wunderground v.1.15,2013-08-06 13:15:00,
2013-08-06 09:20:00,67.4,54.4,30.23,SSW,207,0.0,0.0,63,0.00,,,0.00,Wunderground v.1.15,2013-08-06 13:20:00,
2013-08-06 09:25:00,67.5,53.1,30.23,SW,222,0.0,2.0,60,0.00,,,0.00,Wunderground v.1.15,2013-08-06 13:25:00,
2013-08-06 09:30:00,67.7,53.3,30.23,WNW,302,0.0,0.0,60,0.00,,,0.00,Wunderground v.1.15,2013-08-06 13:30:00,
2013-08-06 09:35:00,67.6,53.2,30.23,West,281,0.0,0.0,60,0.00,,,0.00,Wunderground v.1.15,2013-08-06 13:35:00,
2013-08-06 09:40:00,67.5,52.2,30.23,West,281,0.0,0.0,58,0.00,,,0.00,Wunderground v.1.15,2013-08-06 13:40:00,
2013-08-06 09:50:00,68.0,54.0,30.23,WSW,255,0.0,1.0,61,0.00,,,0.00,Wunderground v.1.15,2013-08-06 13:50:00,
2013-08-06 09:55:00,68.1,54.6,30.24,West,276,0.0,1.0,62,0.00,,,0.00,Wunderground v.1.15,2013-08-06 13:55:00,
2013-08-06 10:00:00,68.3,52.9,30.24,South,190,0.0,0.0,58,0.00,,,0.00,Wunderground v.1.15,2013-08-06 14:00:00,
2013-08-06 10:05:00,68.3,52.5,30.24,SSW,212,1.0,1.0,57,0.00,,,0.00,Wunderground v.1.15,2013-08-06 14:05:00,
2013-08-06 10:10:00,68.0,53.1,30.24,WSW,246,1.0,3.0,59,0.00,,,0.00,Wunderground v.1.15,2013-08-06 14:10:00,
2013-08-06 10:15:00,67.8,52.0,30.24,SW,230,1.0,3.0,57,0.00,,,0.00,Wunderground v.1.15,2013-08-06 14:15:00,
2013-08-06 10:20:00,67.7,52.9,30.24,SSW,209,1.0,1.0,59,0.00,,,0.00,Wunderground v.1.15,2013-08-06 14:20:00,
2013-08-06 10:25:00,67.8,53.4,30.24,SW,220,1.0,1.0,60,0.00,,,0.00,Wunderground v.1.15,2013-08-06 14:25:00,
2013-08-06 10:30:00,68.0,51.7,30.24,SSW,210,1.0,1.0,56,0.00,,,0.00,Wunderground v.1.15,2013-08-06 14:30:00,
2013-08-06 10:35:00,68.2,52.9,30.24,WSW,246,2.0,2.0,58,0.00,,,0.00,Wunderground v.1.15,2013-08-06 14:35:00,
2013-08-06 10:40:00,68.3,53.4,30.24,SW,215,2.0,2.0,59,0.00,,,0.00,Wunderground v.1.15,2013-08-06 14:40:00,
2013-08-06 10:45:00,68.4,51.1,30.24,WSW,238,1.0,2.0,54,0.00,,,0.00,Wunderground v.1.15,2013-08-06 14:45:00,
2013-08-06 10:55:00,68.8,53.9,30.24,WSW,247,1.0,1.0,59,0.00,,,0.00,Wunderground v.1.15,2013-08-06 14:55:00,
2013-08-06 11:00:00,69.2,52.8,30.24,NW,307,1.0,1.0,56,0.00,,,0.00,Wunderground v.1.15,2013-08-06 15:00:00,
2013-08-06 11:05:00,69.8,54.4,30.24,SW,223,0.0,2.0,58,0.00,,,0.00,Wunderground v.1.15,2013-08-06 15:05:00,
2013-08-06 11:10:00,70.4,52.4,30.24,SE,136,0.0,0.0,53,0.00,,,0.00,Wunderground v.1.15,2013-08-06 15:10:00,
2013-08-06 11:15:00,70.5,51.5,30.23,WSW,250,1.0,2.0,51,0.00,,,0.00,Wunderground v.1.15,2013-08-06 15:15:00,
2013-08-06 11:20:00,70.6,52.6,30.23,West,269,1.0,1.0,53,0.00,,,0.00,Wunderground v.1.15,2013-08-06 15:20:00,
2013-08-06 11:30:00,70.3,51.3,30.23,South,191,2.0,2.0,51,0.00,,,0.00,Wunderground v.1.15,2013-08-06 15:30:00,
2013-08-06 11:35:00,70.4,51.4,30.23,South,189,1.0,2.0,51,0.00,,,0.00,Wunderground v.1.15,2013-08-06 15:35:00,
2013-08-06 11:40:00,70.4,50.3,30.23,SSW,213,1.0,1.0,49,0.00,,,0.00,Wunderground v.1.15,2013-08-06 15:40:00,
2013-08-06 11:45:00,70.5,53.1,30.23,WSW,250,1.0,1.0,54,0.00,,,0.00,Wunderground v.1.15,2013-08-06 15:45:00,
2013-08-06 11:50:00,70.8,52.8,30.23,NW,305,1.0,1.0,53,0.00,,,0.00,Wunderground v.1.15,2013-08-06 15:50:00,
2013-08-06 11:55:00,71.2,52.7,30.23,North,5,1.0,2.0,52,0.00,,,0.00,Wunderground v.1.15,2013-08-06 15:55:00,
2013-08-06 12:00:00,71.3,51.7,30.23,NW,304,2.0,2.0,50,0.00,,,0.00,Wunderground v.1.15,2013-08-06 16:00:00,
2013-08-06 12:05:00,71.4,52.9,30.23,NW,324,1.0,2.0,52,0.00,,,0.00,Wunderground v.1.15,2013-08-06 16:05:00,
2013-08-06 12:10:00,71.6,53.6,30.23,WNW,303,1.0,2.0,53,0.00,,,0.00,Wunderground v.1.15,2013-08-06 16:10:00,
2013-08-06 12:15:00,72.0,53.9,30.23,WNW,290,1.0,2.0,53,0.00,,,0.00,Wunderground v.1.15,2013-08-06 16:15:00,
2013-08-06 12:20:00,71.7,54.2,30.23,SW,235,2.0,2.0,54,0.00,,,0.00,Wunderground v.1.15,2013-08-06 16:20:00,
2013-08-06 12:25:00,71.5,51.9,30.23,SSW,204,1.0,2.0,50,0.00,,,0.00,Wunderground v.1.15,2013-08-06 16:25:00,
2013-08-06 12:30:00,71.3,53.8,30.23,SW,235,1.0,1.0,54,0.00,,,0.00,Wunderground v.1.15,2013-08-06 16:30:00,
2013-08-06 12:35:00,71.0,52.0,30.23,SW,229,1.0,1.0,51,0.00,,,0.00,Wunderground v.1.15,2013-08-06 16:35:00,
2013-08-06 12:40:00,71.2,51.6,30.23,WNW,290,1.0,1.0,50,0.00,,,0.00,Wunderground v.1.15,2013-08-06 16:40:00,
2013-08-06 12:45:00,71.9,54.3,30.23,SW,225,0.0,1.0,54,0.00,,,0.00,Wunderground v.1.15,2013-08-06 16:45:00,
2013-08-06 12:55:00,72.4,52.2,30.23,WNW,292,1.0,2.0,49,0.00,,,0.00,Wunderground v.1.15,2013-08-06 16:55:00,
2013-08-06 13:00:00,72.5,53.9,30.23,South,190,1.0,1.0,52,0.00,,,0.00,Wunderground v.1.15,2013-08-06 17:00:00,
2013-08-06 13:05:00,72.5,52.8,30.23,SSW,206,1.0,1.0,50,0.00,,,0.00,Wunderground v.1.15,2013-08-06 17:05:00,
2013-08-06 13:10:00,72.3,53.7,30.23,South,191,2.0,2.0,52,0.00,,,0.00,Wunderground v.1.15,2013-08-06 17:10:00,
2013-08-06 13:20:00,72.2,52.0,30.23,North,360,3.0,3.0,49,0.00,,,0.00,Wunderground v.1.15,2013-08-06 17:20:00,
2013-08-06 13:25:00,72.3,52.6,30.23,South,169,2.0,3.0,50,0.00,,,0.00,Wunderground v.1.15,2013-08-06 17:25:00,
2013-08-06 13:30:00,72.3,53.2,30.23,WSW,242,2.0,2.0,51,0.00,,,0.00,Wunderground v.1.15,2013-08-06 17:30:00,
2013-08-06 13:40:00,71.7,51.5,30.23,SSW,199,1.0,1.0,49,0.00,,,0.00,Wunderground v.1.15,2013-08-06 17:40:00,
2013-08-06 13:45:00,71.9,54.3,30.23,SW,218,0.0,1.0,54,0.00,,,0.00,Wunderground v.1.15,2013-08-06 17:45:00,
2013-08-06 13:50:00,72.4,56.3,30.23,SW,220,1.0,1.0,57,0.00,,,0.00,Wunderground v.1.15,2013-08-06 17:50:00,
2013-08-06 13:55:00,72.7,51.9,30.23,SE,139,2.0,2.0,48,0.00,,,0.00,Wunderground v.1.15,2013-08-06 17:55:00,
2013-08-06 14:00:00,72.2,52.5,30.23,ENE,59,2.0,2.0,50,0.00,,,0.00,Wunderground v.1.15,2013-08-06 18:00:00,
2013-08-06 14:05:00,72.5,52.2,30.23,SW,224,1.0,2.0,49,0.00,,,0.00,Wunderground v.1.15,2013-08-06 18:05:00,
2013-08-06 14:10:00,73.1,53.4,30.23,ENE,76,1.0,3.0,50,0.00,,,0.00,Wunderground v.1.15,2013-08-06 18:10:00,
2013-08-06 14:15:00,73.3,53.5,30.23,South,173,2.0,3.0,50,0.00,,,0.00,Wunderground v.1.15,2013-08-06 18:15:00,
2013-08-06 14:20:00,73.1,52.8,30.23,SSE,165,2.0,2.0,49,0.00,,,0.00,Wunderground v.1.15,2013-08-06 18:20:00,
2013-08-06 14:25:00,72.6,55.5,30.23,SSW,195,0.0,2.0,55,0.00,,,0.00,Wunderground v.1.15,2013-08-06 18:25:00,
2013-08-06 14:35:00,71.4,53.9,30.23,SE,135,0.0,0.0,54,0.00,,,0.00,Wunderground v.1.15,2013-08-06 18:35:00,
2013-08-06 14:40:00,71.1,53.6,30.23,SSE,155,1.0,1.0,54,0.00,,,0.00,Wunderground v.1.15,2013-08-06 18:40:00,
2013-08-06 14:45:00,71.0,52.5,30.23,South,170,1.0,1.0,52,0.00,,,0.00,Wunderground v.1.15,2013-08-06 18:45:00,
2013-08-06 14:50:00,71.0,56.9,30.23,South,179,1.0,1.0,61,0.00,,,0.00,Wunderground v.1.15,2013-08-06 18:50:00,
2013-08-06 14:55:00,71.1,51.5,30.23,SW,232,1.0,1.0,50,0.00,,,0.00,Wunderground v.1.15,2013-08-06 18:55:00,
2013-08-06 15:00:00,71.5,53.5,30.23,WSW,244,1.0,1.0,53,0.00,,,0.00,Wunderground v.1.15,2013-08-06 19:00:00,
2013-08-06 15:05:00,71.7,53.1,30.23,SSW,202,1.0,1.0,52,0.00,,,0.00,Wunderground v.1.15,2013-08-06 19:05:00,
2013-08-06 15:15:00,71.7,54.2,30.23,ESE,123,0.0,1.0,54,0.00,,,0.00,Wunderground v.1.15,2013-08-06 19:15:00,
2013-08-06 15:20:00,71.5,53.5,30.23,SE,133,0.0,0.0,53,0.00,,,0.00,Wunderground v.1.15,2013-08-06 19:20:00,
2013-08-06 15:25:00,71.4,53.4,30.23,ESE,113,1.0,2.0,53,0.00,,,0.00,Wunderground v.1.15,2013-08-06 19:25:00,
2013-08-06 15:30:00,71.6,52.5,30.23,SW,223,1.0,1.0,51,0.00,,,0.00,Wunderground v.1.15,2013-08-06 19:30:00,
2013-08-06 15:35:00,72.0,54.4,30.23,SW,233,0.0,1.0,54,0.00,,,0.00,Wunderground v.1.15,2013-08-06 19:35:00,
2013-08-06 15:40:00,72.3,53.2,30.23,NNW,338,0.0,0.0,51,0.00,,,0.00,Wunderground v.1.15,2013-08-06 19:40:00,
2013-08-06 15:45:00,72.4,55.3,30.23,SW,227,1.0,2.0,55,0.00,,,0.00,Wunderground v.1.15,2013-08-06 19:45:00,
2013-08-06 15:50:00,72.1,54.5,30.23,SSW,194,1.0,1.0,54,0.00,,,0.00,Wunderground v.1.15,2013-08-06 19:50:00,
2013-08-06 15:55:00,72.4,52.7,30.23,SW,235,1.0,2.0,50,0.00,,,0.00,Wunderground v.1.15,2013-08-06 19:55:00,
2013-08-06 16:00:00,72.6,54.0,30.23,SW,232,2.0,2.0,52,0.00,,,0.00,Wunderground v.1.15,2013-08-06 20:00:00,
2013-08-06 16:05:00,72.8,53.6,30.23,WNW,291,1.0,2.0,51,0.00,,,0.00,Wunderground v.1.15,2013-08-06 20:05:00,
2013-08-06 16:10:00,72.8,56.7,30.23,West,273,1.0,1.0,57,0.00,,,0.00,Wunderground v.1.15,2013-08-06 20:10:00,
2013-08-06 16:15:00,73.3,53.5,30.23,SSE,149,1.0,2.0,50,0.00,,,0.00,Wunderground v.1.15,2013-08-06 20:15:00,
2013-08-06 16:20:00,73.9,53.5,30.23,SW,232,2.0,2.0,49,0.00,,,0.00,Wunderground v.1.15,2013-08-06 20:20:00,
2013-08-06 16:25:00,74.2,53.8,30.23,SW,214,2.0,2.0,49,0.00,,,0.00,Wunderground v.1.15,2013-08-06 20:25:00,
2013-08-06 16:30:00,73.4,53.6,30.23,SSW,207,2.0,2.0,50,0.00,,,0.00,Wunderground v.1.15,2013-08-06 20:30:00,
2013-08-06 16:35:00,72.8,54.1,30.23,WSW,242,1.0,4.0,52,0.00,,,0.00,Wunderground v.1.15,2013-08-06 20:35:00,
2013-08-06 16:45:00,72.2,53.1,30.23,SSW,208,1.0,1.0,51,0.00,,,0.00,Wunderground v.1.15,2013-08-06 20:45:00,
2013-08-06 16:50:00,72.0,54.4,30.23,SSE,161,2.0,2.0,54,0.00,,,0.00,Wunderground v.1.15,2013-08-06 20:50:00,
2013-08-06 16:55:00,72.1,54.5,30.23,South,190,1.0,2.0,54,0.00,,,0.00,Wunderground v.1.15,2013-08-06 20:55:00,
2013-08-06 17:00:00,72.1,54.5,30.23,NW,320,1.0,1.0,54,0.00,,,0.00,Wunderground v.1.15,2013-08-06 21:00:00,
2013-08-06 17:05:00,71.9,54.3,30.23,SSW,198,1.0,3.0,54,0.00,,,0.00,Wunderground v.1.15,2013-08-06 21:05:00,
2013-08-06 17:15:00,71.0,54.0,30.23,SSW,196,1.0,2.0,55,0.00,,,0.00,Wunderground v.1.15,2013-08-06 21:15:00,
2013-08-06 17:20:00,70.5,56.9,30.23,SE,129,1.0,1.0,62,0.00,,,0.00,Wunderground v.1.15,2013-08-06 21:20:00,
2013-08-06 17:25:00,70.2,56.1,30.23,SW,219,0.0,1.0,61,0.00,,,0.00,Wunderground v.1.15,2013-08-06 21:25:00,
2013-08-06 17:35:00,69.5,56.3,30.23,SSE,155,0.0,0.0,63,0.00,,,0.00,Wunderground v.1.15,2013-08-06 21:35:00,
2013-08-06 17:40:00,69.1,57.7,30.23,SSE,155,0.0,0.0,67,0.00,,,0.00,Wunderground v.1.15,2013-08-06 21:40:00,
2013-08-06 17:50:00,68.5,58.7,30.23,SSE,155,0.0,0.0,71,0.00,,,0.00,Wunderground v.1.15,2013-08-06 21:50:00,
2013-08-06 17:55:00,68.3,58.1,30.23,SSE,155,0.0,0.0,70,0.00,,,0.00,Wunderground v.1.15,2013-08-06 21:55:00,
2013-08-06 18:00:00,68.2,58.4,30.23,SSE,155,0.0,0.0,71,0.00,,,0.00,Wunderground v.1.15,2013-08-06 22:00:00,
2013-08-06 18:05:00,68.3,58.5,30.23,SSE,155,0.0,0.0,71,0.00,,,0.00,Wunderground v.1.15,2013-08-06 22:05:00,
2013-08-06 18:10:00,68.6,56.4,30.23,WSW,248,0.0,0.0,65,0.00,,,0.00,Wunderground v.1.15,2013-08-06 22:10:00,
2013-08-06 18:15:00,69.1,58.5,30.23,WSW,257,0.0,0.0,69,0.00,,,0.00,Wunderground v.1.15,2013-08-06 22:15:00,
2013-08-06 18:20:00,69.7,57.8,30.23,WSW,256,0.0,0.0,66,0.00,,,0.00,Wunderground v.1.15,2013-08-06 22:20:00,
2013-08-06 18:25:00,70.4,56.3,30.23,SSE,159,1.0,1.0,61,0.00,,,0.00,Wunderground v.1.15,2013-08-06 22:25:00,
2013-08-06 18:30:00,71.1,56.0,30.23,East,87,1.0,1.0,59,0.00,,,0.00,Wunderground v.1.15,2013-08-06 22:30:00,
2013-08-06 18:35:00,71.5,54.5,30.23,South,175,1.0,1.0,55,0.00,,,0.00,Wunderground v.1.15,2013-08-06 22:35:00,
2013-08-06 18:40:00,71.5,55.5,30.24,SSW,211,1.0,3.0,57,0.00,,,0.00,Wunderground v.1.15,2013-08-06 22:40:00,
2013-08-06 18:45:00,71.1,56.0,30.24,South,186,0.0,3.0,59,0.00,,,0.00,Wunderground v.1.15,2013-08-06 22:45:00,
2013-08-06 18:55:00,69.5,58.1,30.24,South,186,0.0,1.0,67,0.00,,,0.00,Wunderground v.1.15,2013-08-06 22:55:00,
2013-08-06 19:00:00,68.4,57.8,30.24,South,186,0.0,0.0,69,0.00,,,0.00,Wunderground v.1.15,2013-08-06 23:00:00,
2013-08-06 19:10:00,66.7,57.0,30.24,South,185,0.0,1.0,71,0.00,,,0.00,Wunderground v.1.15,2013-08-06 23:10:00,
2013-08-06 19:20:00,65.4,57.3,30.24,South,185,1.0,1.0,75,0.00,,,0.00,Wunderground v.1.15,2013-08-06 23:20:00,
2013-08-06 19:25:00,64.9,56.4,30.24,South,185,0.0,1.0,74,0.00,,,0.00,Wunderground v.1.15,2013-08-06 23:25:00,
2013-08-06 19:30:00,64.6,56.9,30.24,South,185,0.0,0.0,76,0.00,,,0.00,Wunderground v.1.15,2013-08-06 23:30:00,
2013-08-06 19:35:00,64.4,56.3,30.24,South,185,0.0,0.0,75,0.00,,,0.00,Wunderground v.1.15,2013-08-06 23:35:00,
2013-08-06 19:40:00,64.4,55.9,30.24,South,185,0.0,1.0,74,0.00,,,0.00,Wunderground v.1.15,2013-08-06 23:40:00,
2013-08-06 19:45:00,64.4,56.3,30.24,South,185,0.0,1.0,75,0.00,,,0.00,Wunderground v.1.15,2013-08-06 23:45:00,
2013-08-06 19:50:00,64.3,56.2,30.24,South,185,0.0,0.0,75,0.00,,,0.00,Wunderground v.1.15,2013-08-06 23:50:00,
2013-08-06 19:55:00,64.1,55.6,30.24,South,185,0.0,0.0,74,0.00,,,0.00,Wunderground v.1.15,2013-08-06 23:55:00,
2013-08-06 20:00:00,63.9,55.4,30.25,SSE,154,0.0,0.0,74,0.00,,,0.00,Wunderground v.1.15,2013-08-07 00:00:00,
2013-08-06 20:05:00,63.7,56.0,30.25,SE,136,0.0,1.0,76,0.00,,,0.00,Wunderground v.1.15,2013-08-07 00:05:00,
2013-08-06 20:10:00,63.4,55.0,30.25,SE,136,0.0,0.0,74,0.00,,,0.00,Wunderground v.1.15,2013-08-07 00:10:00,
2013-08-06 20:15:00,63.2,54.8,30.25,SE,136,0.0,1.0,74,0.00,,,0.00,Wunderground v.1.15,2013-08-07 00:15:00,
2013-08-06 20:25:00,62.8,55.1,30.25,SE,126,1.0,1.0,76,0.00,,,0.00,Wunderground v.1.15,2013-08-07 00:25:00,
2013-08-06 20:35:00,62.6,54.6,30.25,SE,128,0.0,3.0,75,0.00,,,0.00,Wunderground v.1.15,2013-08-07 00:35:00,
2013-08-06 20:40:00,62.7,54.3,30.25,ESE,121,1.0,3.0,74,0.00,,,0.00,Wunderground v.1.15,2013-08-07 00:40:00,
2013-08-06 20:45:00,62.8,54.4,30.26,SE,131,1.0,3.0,74,0.00,,,0.00,Wunderground v.1.15,2013-08-07 00:45:00,
2013-08-06 20:50:00,62.7,54.3,30.26,South,181,0.0,0.0,74,0.00,,,0.00,Wunderground v.1.15,2013-08-07 00:50:00,
2013-08-06 20:55:00,62.5,54.1,30.26,South,180,0.0,0.0,74,0.00,,,0.00,Wunderground v.1.15,2013-08-07 00:55:00,
2013-08-06 21:00:00,62.3,53.9,30.26,South,171,0.0,0.0,74,0.00,,,0.00,Wunderground v.1.15,2013-08-07 01:00:00,
2013-08-06 21:05:00,62.2,53.8,30.26,South,171,0.0,0.0,74,0.00,,,0.00,Wunderground v.1.15,2013-08-07 01:05:00,
2013-08-06 21:10:00,61.9,53.9,30.25,South,169,0.0,0.0,75,0.00,,,0.00,Wunderground v.1.15,2013-08-07 01:10:00,
2013-08-06 21:20:00,61.7,53.3,30.25,ESE,110,1.0,1.0,74,0.00,,,0.00,Wunderground v.1.15,2013-08-07 01:20:00,
2013-08-06 21:25:00,61.7,53.3,30.26,SSE,158,0.0,1.0,74,0.00,,,0.00,Wunderground v.1.15,2013-08-07 01:25:00,
2013-08-06 21:30:00,61.6,53.2,30.26,SE,130,0.0,0.0,74,0.00,,,0.00,Wunderground v.1.15,2013-08-07 01:30:00,
2013-08-06 21:35:00,61.6,53.2,30.26,ESE,105,0.0,0.0,74,0.00,,,0.00,Wunderground v.1.15,2013-08-07 01:35:00,
2013-08-06 21:40:00,61.5,53.5,30.26,ESE,109,0.0,0.0,75,0.00,,,0.00,Wunderground v.1.15,2013-08-07 01:40:00,
2013-08-06 21:45:00,61.4,53.0,30.26,South,177,0.0,0.0,74,0.00,,,0.00,Wunderground v.1.15,2013-08-07 01:45:00,
2013-08-06 21:55:00,61.3,53.3,30.25,ENE,76,0.0,0.0,75,0.00,,,0.00,Wunderground v.1.15,2013-08-07 01:55:00,
2013-08-06 22:00:00,61.2,52.5,30.25,ENE,76,0.0,0.0,73,0.00,,,0.00,Wunderground v.1.15,2013-08-07 02:00:00,
2013-08-06 22:05:00,61.1,52.4,30.25,ENE,76,0.0,0.0,73,0.00,,,0.00,Wunderground v.1.15,2013-08-07 02:05:00,
2013-08-06 22:10:00,61.1,52.4,30.25,SSW,198,0.0,0.0,73,0.00,,,0.00,Wunderground v.1.15,2013-08-07 02:10:00,
2013-08-06 22:20:00,60.9,52.2,30.25,South,182,0.0,0.0,73,0.00,,,0.00,Wunderground v.1.15,2013-08-07 02:20:00,
2013-08-06 22:25:00,60.9,52.2,30.25,SSE,158,0.0,0.0,73,0.00,,,0.00,Wunderground v.1.15,2013-08-07 02:25:00,
2013-08-06 22:30:00,60.9,51.8,30.25,SSW,193,0.0,3.0,72,0.00,,,0.00,Wunderground v.1.15,2013-08-07 02:30:00,
2013-08-06 22:35:00,60.9,51.4,30.25,SSW,194,0.0,3.0,71,0.00,,,0.00,Wunderground v.1.15,2013-08-07 02:35:00,
2013-08-06 22:40:00,60.9,52.2,30.25,South,172,0.0,0.0,73,0.00,,,0.00,Wunderground v.1.15,2013-08-07 02:40:00,
2013-08-06 22:45:00,60.8,52.1,30.25,SSE,160,0.0,0.0,73,0.00,,,0.00,Wunderground v.1.15,2013-08-07 02:45:00,
2013-08-06 22:50:00,60.7,51.6,30.25,SSE,166,0.0,0.0,72,0.00,,,0.00,Wunderground v.1.15,2013-08-07 02:50:00,
2013-08-06 22:55:00,60.5,51.8,30.25,East,79,0.0,1.0,73,0.00,,,0.00,Wunderground v.1.15,2013-08-07 02:55:00,
2013-08-06 23:00:00,60.4,51.7,30.25,East,79,0.0,0.0,73,0.00,,,0.00,Wunderground v.1.15,2013-08-07 03:00:00,
2013-08-06 23:05:00,60.1,51.4,30.25,East,79,0.0,0.0,73,0.00,,,0.00,Wunderground v.1.15,2013-08-07 03:05:00,
2013-08-06 23:10:00,59.9,52.0,30.25,East,79,0.0,0.0,75,0.00,,,0.00,Wunderground v.1.15,2013-08-07 03:10:00,
2013-08-06 23:15:00,59.6,51.7,30.25,NE,53,0.0,0.0,75,0.00,,,0.00,Wunderground v.1.15,2013-08-07 03:15:00,
2013-08-06 23:20:00,59.4,51.5,30.25,NE,53,0.0,1.0,75,0.00,,,0.00,Wunderground v.1.15,2013-08-07 03:20:00,
2013-08-06 23:25:00,59.4,51.1,30.26,East,81,0.0,1.0,74,0.00,,,0.00,Wunderground v.1.15,2013-08-07 03:25:00,
2013-08-06 23:30:00,59.3,51.4,30.25,East,81,0.0,0.0,75,0.00,,,0.00,Wunderground v.1.15,2013-08-07 03:30:00,
2013-08-06 23:35:00,59.3,51.0,30.26,East,81,0.0,0.0,74,0.00,,,0.00,Wunderground v.1.15,2013-08-07 03:35:00,
2013-08-06 23:40:00,59.3,51.0,30.26,East,81,0.0,0.0,74,0.00,,,0.00,Wunderground v.1.15,2013-08-07 03:40:00,
2013-08-06 23:45:00,59.3,51.0,30.26,East,81,0.0,0.0,74,0.00,,,0.00,Wunderground v.1.15,2013-08-07 03:45:00,
2013-08-06 23:50:00,59.3,51.0,30.26,East,81,0.0,0.0,74,0.00,,,0.00,Wunderground v.1.15,2013-08-07 03:50:00,
2013-08-06 23:55:00,59.2,50.9,30.26,East,81,0.0,0.0,74,0.00,,,0.00,Wunderground v.1.15,2013-08-07 03:55:00,